| time (UTC) | temp F | wind direction | speed MPH | gust MPH | rain 1hr in | rain 24hr in | rain mn in | humidity % | barometer mb |
| 20260510104531 | 43 | 277 | 7.0 | 11.0 | 0.00 | 0.09 | 0.00 | 83 | 1013.8 |
| 20260510103025 | 43 | 308 | 9.0 | 13.0 | 0.00 | 0.09 | 0.00 | 80 | 1013.5 |
| 20260510101524 | 43 | 331 | 10.0 | 13.0 | 0.00 | 0.09 | 0.00 | 77 | 1013.4 |
| 20260510100020 | 43 | 287 | 7.0 | 9.0 | 0.00 | 0.09 | 0.00 | 81 | 1013.3 |
| 20260510094527 | 43 | 298 | 8.0 | 11.0 | 0.00 | 0.09 | 0.00 | 80 | 1012.8 |
| 20260510093013 | 43 | 304 | 7.0 | 11.0 | 0.00 | 0.09 | 0.00 | 81 | 1012.5 |
| 20260510091509 | 43 | 328 | 7.0 | 10.0 | 0.00 | 0.09 | 0.00 | 81 | 1012.1 |
| 20260510090008 | 43 | 318 | 7.0 | 9.0 | 0.00 | 0.09 | 0.00 | 79 | 1011.9 |
| 20260510084505 | 44 | 348 | 7.0 | 9.0 | 0.00 | 0.09 | 0.00 | 80 | 1011.7 |
| 20260510083002 | 44 | 340 | 9.0 | 11.0 | 0.00 | 0.09 | 0.00 | 79 | 1011.4 |
| 20260510081501 | 44 | 9 | 12.0 | 14.0 | 0.00 | 0.09 | 0.00 | 74 | 1011.2 |
| 20260510080105 | 45 | 19 | 10.0 | 12.0 | 0.00 | 0.09 | 0.00 | 80 | 1011.1 |
| 20260510074657 | 43 | 28 | 3.0 | 9.0 | 0.00 | 0.09 | 0.00 | 78 | 1010.8 |
| 20260510073039 | 43 | 139 | 0.0 | 3.0 | 0.00 | 0.09 | 0.00 | 77 | 1010.6 |
| 20260510071525 | 45 | 28 | 3.0 | 15.0 | 0.00 | 0.09 | 0.00 | 76 | 1010.5 |
| 20260510070028 | 46 | 37 | 12.0 | 16.0 | 0.00 | 0.09 | 0.00 | 73 | 1010.3 |
| 20260510064521 | 46 | 34 | 11.0 | 13.0 | 0.00 | 0.09 | 0.00 | 77 | 1010.2 |
| 20260510063021 | 46 | 22 | 13.0 | 18.0 | 0.00 | 0.09 | 0.00 | 77 | 1010.2 |
| 20260510061519 | 46 | 21 | 14.0 | 17.0 | 0.00 | 0.09 | 0.00 | 77 | 1010.1 |
| 20260510060032 | 46 | 19 | 17.0 | 21.0 | 0.00 | 0.09 | 0.00 | 75 | 1010.0 |
| 20260510054518 | 46 | 20 | 16.0 | 20.0 | 0.00 | 0.09 | 0.00 | 77 | 1010.0 |
| 20260510053012 | 46 | 21 | 18.0 | 21.0 | 0.00 | 0.09 | 0.00 | 75 | 1009.9 |
| 20260510051510 | 46 | 19 | 18.0 | 22.0 | 0.00 | 0.09 | 0.00 | 74 | 1009.7 |
| 20260510050007 | 46 | 26 | 18.0 | 21.0 | 0.00 | 0.09 | 0.00 | 78 | 1009.4 |
| 20260510044505 | 46 | 19 | 17.0 | 20.0 | 0.00 | 0.09 | 0.00 | 80 | 1009.1 |
| 20260510043002 | 46 | 25 | 19.0 | 22.0 | 0.00 | 0.09 | 0.00 | 78 | 1009.1 |
| 20260510041609 | 47 | 29 | 17.0 | 20.0 | 0.00 | 0.09 | 0.00 | 77 | 1008.9 |
| 20260510040104 | 47 | 28 | 16.0 | 21.0 | 0.00 | 0.09 | 0.00 | 76 | 1008.7 |
| 20260510034552 | 48 | 356 | 18.0 | 22.0 | 0.00 | 0.09 | 0.09 | 74 | 1008.5 |
| 20260510033056 | 50 | 29 | 13.0 | 14.0 | 0.00 | 0.09 | 0.09 | 69 | 1008.1 |
| 20260510031551 | 50 | 35 | 9.0 | 11.0 | 0.00 | 0.09 | 0.09 | 70 | 1007.5 |
| 20260510030048 | 50 | 39 | 9.0 | 10.0 | 0.00 | 0.09 | 0.09 | 73 | 1007.5 |
| 20260510024547 | 50 | 19 | 8.0 | 10.0 | 0.00 | 0.09 | 0.09 | 74 | 1007.4 |
| 20260510023046 | 51 | 12 | 7.0 | 9.0 | 0.00 | 0.09 | 0.09 | 77 | 1007.0 |
| 20260510021636 | 51 | 28 | 9.0 | 11.0 | 0.00 | 0.09 | 0.09 | 74 | 1006.5 |
| 20260510020044 | 51 | 39 | 6.0 | 8.0 | 0.00 | 0.09 | 0.09 | 78 | 1006.2 |
| 20260510014553 | 51 | 39 | 8.0 | 9.0 | 0.00 | 0.09 | 0.09 | 81 | 1005.9 |
| 20260510013056 | 50 | 39 | 7.0 | 9.0 | 0.00 | 0.09 | 0.09 | 84 | 1005.6 |
| 20260510011543 | 49 | 40 | 10.0 | 11.0 | 0.00 | 0.09 | 0.09 | 82 | 1005.1 |
| 20260510010052 | 49 | 32 | 10.0 | 14.0 | 0.00 | 0.09 | 0.09 | 81 | 1005.1 |
| 20260510004541 | 50 | 35 | 14.0 | 17.0 | 0.00 | 0.09 | 0.09 | 75 | 1004.8 |
| 20260510003040 | 52 | 13 | 8.0 | 11.0 | 0.00 | 0.09 | 0.09 | 71 | 1004.5 |
| 20260510001540 | 54 | 342 | 6.0 | 9.0 | 0.00 | 0.09 | 0.09 | 70 | 1004.1 |
| 20260510000039 | 54 | 233 | 0.0 | 0.0 | 0.00 | 0.09 | 0.09 | 70 | 1003.5 |
| 20260509234539 | 54 | 233 | 0.0 | 1.0 | 0.00 | 0.09 | 0.09 | 70 | 1003.2 |
| 20260509233038 | 54 | 232 | 0.0 | 0.0 | 0.00 | 0.09 | 0.09 | 71 | 1002.8 |
| 20260509231537 | 53 | 233 | 0.0 | 0.0 | 0.00 | 0.09 | 0.09 | 73 | 1002.6 |
| 20260509230041 | 53 | 236 | 0.0 | 2.0 | 0.00 | 0.09 | 0.09 | 77 | 1002.5 |
| 20260509224537 | 53 | 346 | 0.0 | 2.0 | 0.00 | 0.09 | 0.09 | 74 | 1002.2 |
| 20260509223038 | 54 | 233 | 4.0 | 5.0 | 0.00 | 0.09 | 0.09 | 73 | 1001.8 |
| 20260509221538 | 55 | 236 | 4.0 | 5.0 | 0.00 | 0.09 | 0.09 | 74 | 1001.6 |
| 20260509220034 | 54 | 253 | 5.0 | 7.0 | 0.00 | 0.09 | 0.09 | 76 | 1001.3 |
| 20260509214537 | 56 | 239 | 9.0 | 11.0 | 0.00 | 0.09 | 0.09 | 75 | 1000.9 |
| 20260509213035 | 57 | 248 | 8.0 | 13.0 | 0.00 | 0.09 | 0.09 | 75 | 1000.8 |
| 20260509211530 | 58 | 236 | 10.0 | 13.0 | 0.00 | 0.09 | 0.09 | 76 | 1001.1 |
| 20260509210035 | 59 | 228 | 9.0 | 11.0 | 0.00 | 0.09 | 0.09 | 80 | 1001.3 |
| 20260509204529 | 56 | 239 | 6.0 | 11.0 | 0.00 | 0.09 | 0.09 | 92 | 1000.9 |
| 20260509203028 | 55 | 111 | 6.0 | 12.0 | 0.01 | 0.09 | 0.09 | 86 | 1000.9 |
| 20260509201527 | 55 | 149 | 1.0 | 7.0 | 0.09 | 0.09 | 0.09 | 73 | 1001.0 |
| 20260509200026 | 53 | 232 | 4.0 | 10.0 | 0.09 | 0.09 | 0.09 | 75 | 1001.2 |
| 20260509194537 | 51 | 225 | 2.0 | 7.0 | 0.09 | 0.09 | 0.09 | 83 | 1001.3 |
| 20260509193025 | 51 | 231 | 20.0 | 47.0 | 0.08 | 0.08 | 0.08 | 91 | 1002.0 |
| 20260509191522 | 62 | 153 | 4.0 | 14.0 | 0.00 | 0.00 | 0.00 | 66 | 1000.2 |
| 20260509190025 | 64 | 235 | 7.0 | 22.0 | 0.00 | 0.00 | 0.00 | 60 | 1000.0 |
| 20260509184522 | 65 | 239 | 5.0 | 15.0 | 0.00 | 0.00 | 0.00 | 56 | 1000.2 |
| 20260509183019 | 66 | 250 | 4.0 | 18.0 | 0.00 | 0.00 | 0.00 | 53 | 1000.2 |
| 20260509181516 | 65 | 150 | 4.0 | 13.0 | 0.00 | 0.00 | 0.00 | 57 | 1000.2 |
| 20260509180013 | 64 | 229 | 8.0 | 11.0 | 0.00 | 0.00 | 0.00 | 61 | 1000.4 |
| 20260509174514 | 63 | 245 | 8.0 | 17.0 | 0.00 | 0.00 | 0.00 | 62 | 1000.7 |
| 20260509173012 | 63 | 139 | 4.0 | 13.0 | 0.00 | 0.00 | 0.00 | 64 | 1001.0 |
| 20260509171509 | 63 | 233 | 3.0 | 10.0 | 0.00 | 0.00 | 0.00 | 62 | 1001.2 |
| 20260509170011 | 63 | 264 | 3.0 | 11.0 | 0.00 | 0.00 | 0.00 | 64 | 1001.0 |
| 20260509164511 | 65 | 273 | 5.0 | 10.0 | 0.00 | 0.00 | 0.00 | 63 | 1000.8 |
| 20260509163003 | 63 | 103 | 1.0 | 9.0 | 0.00 | 0.00 | 0.00 | 69 | 1001.0 |
| 20260509161606 | 62 | 152 | 1.0 | 7.0 | 0.00 | 0.00 | 0.00 | 71 | 1001.7 |
| 20260509160101 | 61 | 219 | 2.0 | 9.0 | 0.00 | 0.00 | 0.00 | 75 | 1002.0 |
| 20260509154554 | 59 | 193 | 1.0 | 5.0 | 0.00 | 0.00 | 0.00 | 78 | 1002.2 |
| 20260509153058 | 59 | 143 | 0.0 | 3.0 | 0.00 | 0.00 | 0.00 | 80 | 1002.6 |
| 20260509151546 | 58 | 242 | 1.0 | 8.0 | 0.00 | 0.00 | 0.00 | 79 | 1003.8 |
| 20260509150045 | 57 | 225 | 1.0 | 9.0 | 0.00 | 0.00 | 0.00 | 79 | 1004.2 |
| 20260509144549 | 57 | 212 | 4.0 | 7.0 | 0.00 | 0.00 | 0.00 | 78 | 1004.0 |
| 20260509143043 | 58 | 193 | 3.0 | 9.0 | 0.00 | 0.00 | 0.00 | 78 | 1003.7 |
| 20260509141543 | 57 | 253 | 2.0 | 8.0 | 0.00 | 0.00 | 0.00 | 80 | 1003.5 |
| 20260509140053 | 56 | 259 | 3.0 | 8.0 | 0.00 | 0.00 | 0.00 | 83 | 1003.7 |
| 20260509134535 | 55 | 194 | 2.0 | 7.0 | 0.00 | 0.00 | 0.00 | 86 | 1003.4 |
| 20260509133037 | 55 | 106 | 2.0 | 6.0 | 0.00 | 0.00 | 0.00 | 86 | 1003.5 |
| 20260509131528 | 54 | 257 | 2.0 | 5.0 | 0.00 | 0.00 | 0.00 | 90 | 1003.8 |
| 20260509130025 | 52 | 231 | 1.0 | 5.0 | 0.00 | 0.00 | 0.00 | 92 | 1004.1 |
| 20260509124522 | 52 | 219 | 0.0 | 4.0 | 0.00 | 0.00 | 0.00 | 93 | 1004.2 |
| 20260509123018 | 51 | 211 | 1.0 | 4.0 | 0.00 | 0.00 | 0.00 | 93 | 1004.3 |
| 20260509121514 | 50 | 217 | 0.0 | 4.0 | 0.00 | 0.00 | 0.00 | 91 | 1004.8 |
| 20260509120012 | 49 | 113 | 1.0 | 4.0 | 0.00 | 0.00 | 0.00 | 88 | 1004.8 |
| 20260509114508 | 49 | 188 | 0.0 | 3.0 | 0.00 | 0.00 | 0.00 | 84 | 1004.6 |
| 20260509113006 | 48 | 62 | 0.0 | 3.0 | 0.00 | 0.00 | 0.00 | 82 | 1004.7 |
| 20260509111504 | 48 | 155 | 0.0 | 1.0 | 0.00 | 0.00 | 0.00 | 81 | 1004.5 |
| 20260509110004 | 48 | 193 | 0.0 | 1.0 | 0.00 | 0.00 | 0.00 | 80 | 1004.4 |